COLIBRI-S (RS67S)

Last updated on Thu Oct 30 2025 00:03:10 GMT+0000 (Coordinated Universal Time)

1 61746U 24199M 25302.58019740 .00022476 00000+0 62069-3 0 9991 2 61746 97.3313 170.5643 0012409 42.8868 317.3342 15.36996627101863
UTC large
Height (km)
Speed (km/s)
/
Latitude / Longitude
Inclination (degrees)
Orbital Period (minutes)
Azimuth
Elevation
Range (km)
Doppler Factor

Next 0 passes for location: London (51.5072 / 0.1276)

Sorry there are no passes over London.